Tracking 30990 objects as of 8-Jul-2025
HD Live streaming from Space Station
objects crossing your sky now

IRIDIUM 44

Track IRIDIUM 44 now!
10-day predictions
IRIDIUM 44 is classified as:


NORAD ID: 25078
Int'l Code: 1997-077B
Perigee: 763.5 km
Apogee: 766.1 km
Inclination: 86.4 °
Period: 100.0 minutes
Semi major axis: 7135 km
RCS: 3.743 m2 (large)
Launch date: December 8, 1997
Source: United States (US)
Launch site: Taiyaun Space Center, China (TSC)
Your satellite tracking list
Your tracking list is empty




NASA's NSSDC Master Catalog

Two Line Element Set (TLE):
1 25078U 97077B   25188.76411327  .00000272  00000-0  79786-4 0  9999
2 25078  86.3961 212.5692 0001834  38.1743 321.9586 14.40253208446665
Source of the keplerian elements: AFSPC